Location: Barton Flats Campground
(34.1722°N, 116.8753°W)
Time: 19:45:08
(UTC+00:00)

Cosmos 2315 Rocket - Pass Details

Date: 08 August 2020
Orbit: 965 x 1003 km, 82.9° (Epoch: 01 October)

Event Time Altitude Azimuth Distance (km) Brightness Sun altitude
Rises 12:28:28 0° 190° (S) 3,670 6.7 -7.7°
Reaches altitude 10° 12:30:58 10° 192° (SSW) 2,731 6.0 -7.2°
Maximum altitude 12:37:14 73° 277° (W) 1,034 4.1 -6.0°
Drops below altitude 10° 12:43:35 10° 2° (N) 2,770 6.7 -4.8°
Sets 12:46:09 0° 4° (N) 3,727 7.4 -4.3°
